Погода в Московском

Россия / Республика Хакасия     53°55′42″N   91°06′22″E
темп.,
°C
ветер,
м/с
пор.,
м/с
влажн.,
%
обл.,
%
осадки,
мм/ч
давл.,
гПа
погр.,
м
15 мая, сб
сб1501:00+8сз3857100 0.0 1022173
04:00+8з2258100 0.0 102228
07:00+9юз355898 0.0 1022303
10:00+14зюз464454 0.0 10211355
13:00+18зюз5738100 0.0 10192212
16:00+16з71051100 0.2 10191295
19:00+15зюз2456100 0.6 1019113
22:00+13ююз346087 0.0 101895
16 мая, вс
вс1601:00+12зюз2460100 0.1 1017104
04:00+12зюз3666100 0.4 1017156
07:00+12ююз2466100 1.1 1016100
10:00+13ююв2268100 0.1 101656
13:00+18юз2448100 0.1 1013585
16:00+21з694167 0.0 10101789
19:00+18зсз71155100 0.2 1009512
22:00+14з81482100 10.6 1009674
17 мая, пн
пн1701:00+13юз4982100 13.0 1007336
04:00+12зсз3688100 3.6 1007262
07:00+10ссз4890100 4.1 1010472
10:00+9ссз7108248 0.1 1013520
13:00+13с675915 0.1 10151032
16:00+14ссз4554100 0.0 10141214
19:00+12сз2462100 0.0 1015614
22:00+12зсз0168100 0.0 101514
18 мая, вт
вт1801:00+11вюв1170100 0.0 101423
04:00+9юз117995 0.0 101311
07:00+10з2482100 0.1 1011227
10:00+12ююз4979100 1.6 1008614
13:00+12юз4982100 6.4 1007482
16:00+16з61171100 2.5 1005955
19:00+15зсз367994 4.6 1003179
22:00+11с379278 3.3 1005283
19 мая, ср
ср1901:00+11з238732 3.3 100577
04:00+10ююз229232 0.0 100442
07:00+11ююз3594100 0.2 1001207
10:00+15з61370100 0.6 9981408
13:00+7ссз71185100 0.9 1002542
16:00+5ссз91391100 0.9 1004715
19:00+7с61181100 1.3 1005924
22:00+6ссз4983100 0.1 1006704